Weather in Larnevsk

Russia / Bryansk Oblast     53°08′55″N   31°30′53″E
temp.,
°C
wind,
m/s
gust,
m/s
humid.,
%
clouds,
%
prec.,
mm/h
press.,
hPa
HPBL,
m
13 may, thu
thu1300:00+9sse5897100 3.6 1012495
03:00+8se4893100 6.0 1012368
06:00+8ese4894100 0.0 1012379
09:00+9ese688888 0.2 1011679
12:00+11se7874100 0.8 10111135
15:00+12s577399 1.4 10111087
18:00+12s4777100 0.8 1011765
21:00+9se4108994 1.2 1011260
14 may, fri
fri1400:00+10se51388100 0.2 1011450
03:00+9se51387100 0.3 1010392
06:00+10se51389100 0.0 1010398
09:00+11se5128397 0.1 1010472
12:00+18sse7106547 0.1 10091264
15:00+20sse686122 0.9 10071700
18:00+18sse4676100 1.4 1006704
21:00+14s2288100 2.3 100522
15 may, sat
sat1500:00+12s34965 1.0 100582
03:00+12s3796100 1.1 1005199
06:00+11s4996100 0.3 1006386
09:00+13ssw6109399 0.9 1007665
12:00+16sw6877100 0.1 1008943
15:00+18ssw78587 0.5 10081673
18:00+17sw456716 0.0 10091179
21:00+12w228986 0.3 101022
16 may, sun
sun1600:00+10wsw339365 0.1 101138
03:00+9ssw34945 0.1 101262
06:00+10ssw239687 0.0 101376
09:00+15ssw348010 0.0 1013502
12:00+19s446330 0.1 10131407
15:00+20s455534 0.1 10131701
18:00+19se3569100 0.0 1012281
21:00+16ese3573100 0.0 101294
17 may, mon
mon1700:00+13ese3483100 0.0 101162
03:00+12ese4790100 0.0 1011103
06:00+13e41290100 0.0 1010249
09:00+17e51083100 0.6 1008410
12:00+21e5972100 0.1 1006858
15:00+24se7126375 0.1 10041341
18:00+22se81368100 0.3 10031003
21:00+18se51389100 1.6 1002310